Regional Weather Roundup
Issued by NWS

Home | Current Version | Previous Version | Text Only | Print | Product List | Glossary On
Versions: 1 2 3 4 5 6 7 8 9 10 11 12 13 14 15 16 17 18 19 20 21 22 23 24 25 26 27 28 29 30 31 32 33 34 35 36 37 38 39 40 41 42 43 44 45 46 47 48 49 50
000
ASUS43 KFSD 291210
RWRSD

WEATHER ROUNDUP FOR SOUTH DAKOTA
NATIONAL WEATHER SERVICE SIOUX FALLS SD
700 AM CDT SAT JUL 29 2017

NOTE: "FAIR" INDICATES FEW OR NO CLOUDS BELOW 12,000 FEET WITH NO
SIGNIFICANT WEATHER AND/OR OBSTRUCTIONS TO VISIBILITY.


SDZ001>005-009-010-012>017-291300-
NORTHWEST AND NORTH CENTRAL SOUTH DAKOTA

CITY           SKY/WX    TMP DP  RH WIND       PRES   REMARKS
BUFFALO          N/A     61  59  93 SW7       30.00S
FAITH            N/A     63  62  97 SE10      30.04R
MOBRIDGE       CLEAR     66  63  90 E8        30.03R
$$

SDZ012>016-024>037-041>051-057-063-072>074-291300-
SOUTHWEST AND SOUTH CENTRAL SOUTH DAKOTA

CITY           SKY/WX    TMP DP  RH WIND       PRES   REMARKS
RAPID CTY ARPT PTCLDY    61  59  93 CALM      30.05R
PIERRE         CLEAR     67  62  84 SE10      30.03S
CUSTER         CLOUDY    55  51  86 NW3       30.21S
ELLSWORTH AFB  CLEAR     63  61  92 W5        30.04S
PHILIP         CLEAR     62  62 100 E6        30.03R
PINE RIDGE     PTCLDY    66  65  96 SW7       30.09R
SPEARFISH      FAIR      64  54  68 CALM      30.11R
WINNER         FAIR      67  63  87 SE9       30.07R
$$

SDZ004>011-016>023-039-040-291300-
NORTHEAST SOUTH DAKOTA

CITY           SKY/WX    TMP DP  RH WIND       PRES   REMARKS
ABERDEEN       CLEAR     62  60  93 SE8       30.09R
WATERTOWN      CLEAR     63  59  87 S5        30.12S
BROOKINGS      CLEAR     63  60  90 SE5       30.14R
SISSETON         N/A     61  59  93 SE3       30.10R
$$

SDZ017-020-022-023-036>040-048>070-291300-
SOUTHEAST SOUTH DAKOTA

CITY           SKY/WX    TMP DP  RH WIND       PRES   REMARKS
SIOUX FALLS    CLEAR     63  62  97 NE3       30.12R
HURON          CLEAR     63  61  93 SE8       30.09R
CHAMBERLAIN    CLEAR     66  66  99 SE8       30.08R
MITCHELL       CLEAR     63  62  97 SE6       30.10R
YANKTON        CLEAR     63  62  97 E6        30.11R FOG
$$

ABBREVIATIONS USED IN REMARKS
   TC - TEMPERATURE IN CELSIUS
  WCI - WIND CHILL INDEX
   HX - HEAT INDEX
  VSB - VISIBILITY





USA.gov is the U.S. government's official web portal to all federal, state and local government web resources and services.